Location: Newark
(42.8481°N, 0.4872°E)
Time: 07:46:36
(UTC+00:00)

Vanguard 2 - Pass Details

Date: 31 October 2020
Orbit: 554 x 2937 km, 32.9° (Epoch: 28 November)

Event Time Altitude Azimuth Distance (km) Brightness Sun altitude
Rises 16:44:50 0° 202° (SSW) 4,341 12.1 0.3°
Reaches altitude 10° 16:48:07 10° 188° (S) 3,711 11.4 -0.3°
Maximum altitude 16:55:47 25° 139° (SE) 3,411 10.6 -1.6°
Drops below altitude 10° 17:06:15 10° 93° (E) 5,226 11.2 -3.4°
Enters shadow 17:10:07 - 85° (E) 6,101 11.4 -4.1°
Sets 17:12:01 0° 82° (E) 6,534 - -4.5°
